Time,TemperatureF,DewpointF,PressureIn,WindDirection,WindDirectionDegrees,WindSpeedMPH,WindSpeedGustMPH,Humidity,HourlyPrecipIn,Conditions,Clouds,dailyrainin,SoftwareType,DateUTC
2013-03-18 00:03:00,30.0,21.0,30.25,ENE,67,0.0,1.0,68,0.00,,,0.05,,2013-03-18 04:03:00,
2013-03-18 00:23:00,30.0,21.0,30.25,ENE,67,0.0,1.0,68,0.00,,,0.05,,2013-03-18 04:23:00,
2013-03-18 00:33:00,30.0,21.0,30.25,ENE,67,0.0,1.0,68,0.00,,,0.05,,2013-03-18 04:33:00,
2013-03-18 00:42:00,30.0,21.0,30.25,ENE,67,0.0,1.0,68,0.00,,,0.05,,2013-03-18 04:42:00,
2013-03-18 00:53:00,30.0,21.0,30.25,ENE,67,0.0,1.0,68,0.00,,,0.05,,2013-03-18 04:53:00,
2013-03-18 03:23:00,28.0,18.0,30.29,ENE,65,0.0,0.0,67,0.00,,,0.04,,2013-03-18 07:23:00,
2013-03-18 03:33:00,28.0,18.0,30.29,ENE,65,0.0,0.0,67,0.00,,,0.04,,2013-03-18 07:33:00,
2013-03-18 03:43:00,28.0,18.0,30.29,ENE,65,0.0,0.0,67,0.00,,,0.04,,2013-03-18 07:43:00,
2013-03-18 03:53:00,28.0,18.0,30.29,ENE,65,0.0,0.0,67,0.00,,,0.04,,2013-03-18 07:53:00,
2013-03-18 04:02:00,28.0,18.0,30.29,ENE,65,0.0,0.0,67,0.00,,,0.04,,2013-03-18 08:02:00,
2013-03-18 04:22:00,27.0,18.0,30.29,ENE,65,0.0,1.0,68,0.00,,,0.04,,2013-03-18 08:22:00,
2013-03-18 04:32:00,27.0,18.0,30.29,ENE,65,0.0,1.0,68,0.00,,,0.04,,2013-03-18 08:32:00,
2013-03-18 04:43:00,27.0,18.0,30.29,ENE,65,0.0,1.0,68,0.00,,,0.04,,2013-03-18 08:43:00,
2013-03-18 04:53:00,27.0,18.0,30.29,ENE,65,0.0,1.0,68,0.00,,,0.04,,2013-03-18 08:53:00,
2013-03-18 05:02:00,27.0,18.0,30.29,ENE,65,0.0,1.0,68,0.00,,,0.04,,2013-03-18 09:02:00,
2013-03-18 05:03:00,27.0,18.0,30.29,NE,44,0.0,5.0,69,0.00,,,0.00,,2013-03-18 09:03:00,
2013-03-18 05:22:00,27.0,18.0,30.29,NE,44,0.0,5.0,69,0.00,,,0.00,,2013-03-18 09:22:00,
2013-03-18 05:33:00,27.0,18.0,30.29,NE,44,0.0,5.0,69,0.00,,,0.00,,2013-03-18 09:33:00,
2013-03-18 05:43:00,27.0,18.0,30.29,NE,44,0.0,5.0,69,0.00,,,0.00,,2013-03-18 09:43:00,
2013-03-18 05:53:00,27.0,18.0,30.29,NE,44,0.0,5.0,69,0.00,,,0.00,,2013-03-18 09:53:00,
2013-03-18 06:03:00,27.0,17.0,30.29,East,91,2.0,11.0,65,0.00,,,0.00,,2013-03-18 10:03:00,
2013-03-18 06:23:00,27.0,17.0,30.29,East,91,2.0,11.0,65,0.00,,,0.00,,2013-03-18 10:23:00,
2013-03-18 06:33:00,27.0,17.0,30.29,East,91,2.0,11.0,65,0.00,,,0.00,,2013-03-18 10:33:00,
2013-03-18 06:42:00,27.0,17.0,30.29,East,91,2.0,11.0,65,0.00,,,0.00,,2013-03-18 10:42:00,
2013-03-18 06:53:00,27.0,17.0,30.29,East,91,2.0,11.0,65,0.00,,,0.00,,2013-03-18 10:53:00,
2013-03-18 07:03:00,27.0,17.0,30.31,NE,45,3.0,9.0,66,0.00,,,0.00,,2013-03-18 11:03:00,
2013-03-18 07:22:00,27.0,17.0,30.31,NE,45,3.0,9.0,66,0.00,,,0.00,,2013-03-18 11:22:00,
2013-03-18 07:32:00,27.0,17.0,30.31,NE,45,3.0,9.0,66,0.00,,,0.00,,2013-03-18 11:32:00,
2013-03-18 07:43:00,27.0,17.0,30.31,NE,45,3.0,9.0,66,0.00,,,0.00,,2013-03-18 11:43:00,
2013-03-18 07:53:00,27.0,17.0,30.31,NE,45,3.0,9.0,66,0.00,,,0.00,,2013-03-18 11:53:00,
2013-03-18 08:22:00,27.0,16.0,30.30,ENE,67,3.0,9.0,64,0.00,,,0.00,,2013-03-18 12:22:00,
2013-03-18 08:33:00,27.0,16.0,30.30,ENE,67,3.0,9.0,64,0.00,,,0.00,,2013-03-18 12:33:00,
2013-03-18 08:43:00,27.0,16.0,30.30,ENE,67,3.0,9.0,64,0.00,,,0.00,,2013-03-18 12:43:00,
2013-03-18 08:52:00,27.0,16.0,30.30,ENE,67,3.0,9.0,64,0.00,,,0.00,,2013-03-18 12:52:00,
2013-03-18 09:02:00,27.0,16.0,30.30,ENE,67,3.0,9.0,64,0.00,,,0.00,,2013-03-18 13:02:00,
2013-03-18 09:23:00,28.0,16.0,30.30,East,85,0.0,4.0,60,0.00,,,0.00,,2013-03-18 13:23:00,
2013-03-18 09:33:00,28.0,16.0,30.30,East,85,0.0,4.0,60,0.00,,,0.00,,2013-03-18 13:33:00,
2013-03-18 09:42:00,28.0,16.0,30.30,East,85,0.0,4.0,60,0.00,,,0.00,,2013-03-18 13:42:00,
2013-03-18 09:52:00,28.0,16.0,30.30,East,85,0.0,4.0,60,0.00,,,0.00,,2013-03-18 13:52:00,
2013-03-18 10:02:00,28.0,16.0,30.30,East,85,0.0,4.0,60,0.00,,,0.00,,2013-03-18 14:02:00,
2013-03-18 10:22:00,30.0,17.0,30.29,East,82,0.0,8.0,57,0.00,,,0.00,,2013-03-18 14:22:00,
2013-03-18 10:32:00,30.0,17.0,30.29,East,82,0.0,8.0,57,0.00,,,0.00,,2013-03-18 14:32:00,
2013-03-18 10:42:00,30.0,17.0,30.29,East,82,0.0,8.0,57,0.00,,,0.00,,2013-03-18 14:42:00,
2013-03-18 10:52:00,30.0,17.0,30.29,East,82,0.0,8.0,57,0.00,,,0.00,,2013-03-18 14:52:00,
2013-03-18 11:02:00,30.0,17.0,30.29,East,82,0.0,8.0,57,0.00,,,0.00,,2013-03-18 15:02:00,
2013-03-18 13:22:00,34.0,24.0,30.19,South,173,2.0,12.0,66,0.00,,,0.00,,2013-03-18 17:22:00,
2013-03-18 13:33:00,34.0,24.0,30.19,South,173,2.0,12.0,66,0.00,,,0.00,,2013-03-18 17:33:00,
2013-03-18 13:43:00,34.0,24.0,30.19,South,173,2.0,12.0,66,0.00,,,0.00,,2013-03-18 17:43:00,
2013-03-18 13:52:00,34.0,24.0,30.19,South,173,2.0,12.0,66,0.00,,,0.00,,2013-03-18 17:52:00,
2013-03-18 14:02:00,34.0,24.0,30.19,South,173,2.0,12.0,66,0.00,,,0.00,,2013-03-18 18:02:00,
2013-03-18 14:22:00,34.0,25.0,30.18,ENE,61,0.0,7.0,69,0.00,,,0.00,,2013-03-18 18:22:00,
2013-03-18 14:32:00,34.0,25.0,30.18,ENE,61,0.0,7.0,69,0.00,,,0.00,,2013-03-18 18:32:00,
2013-03-18 14:42:00,34.0,25.0,30.18,ENE,61,0.0,7.0,69,0.00,,,0.00,,2013-03-18 18:42:00,
2013-03-18 14:52:00,34.0,25.0,30.18,ENE,61,0.0,7.0,69,0.00,,,0.00,,2013-03-18 18:52:00,
2013-03-18 15:02:00,34.0,25.0,30.18,ENE,61,0.0,7.0,69,0.00,,,0.00,,2013-03-18 19:02:00,
2013-03-18 16:23:00,34.0,31.0,30.08,East,91,3.0,11.0,87,0.00,,,0.00,,2013-03-18 20:23:00,
2013-03-18 16:33:00,34.0,31.0,30.08,East,91,3.0,11.0,87,0.00,,,0.00,,2013-03-18 20:33:00,
2013-03-18 16:43:00,34.0,31.0,30.08,East,91,3.0,11.0,87,0.00,,,0.00,,2013-03-18 20:43:00,
2013-03-18 16:52:00,34.0,31.0,30.08,East,91,3.0,11.0,87,0.00,,,0.00,,2013-03-18 20:52:00,
2013-03-18 17:02:00,34.0,31.0,30.08,East,91,3.0,11.0,87,0.00,,,0.00,,2013-03-18 21:02:00,
2013-03-18 17:03:00,33.0,31.0,30.08,East,83,2.0,7.0,91,0.00,,,0.00,,2013-03-18 21:03:00,
2013-03-18 17:23:00,33.0,31.0,30.08,East,83,2.0,7.0,91,0.00,,,0.00,,2013-03-18 21:23:00,
2013-03-18 17:33:00,33.0,31.0,30.08,East,83,2.0,7.0,91,0.00,,,0.00,,2013-03-18 21:33:00,
2013-03-18 17:43:00,33.0,31.0,30.08,East,83,2.0,7.0,91,0.00,,,0.00,,2013-03-18 21:43:00,
2013-03-18 17:53:00,33.0,31.0,30.08,East,83,2.0,7.0,91,0.00,,,0.00,,2013-03-18 21:53:00,
2013-03-18 18:03:00,32.0,30.0,30.03,NE,50,3.0,13.0,94,0.00,,,0.00,,2013-03-18 22:03:00,
2013-03-18 18:23:00,32.0,30.0,30.03,NE,50,3.0,13.0,94,0.00,,,0.00,,2013-03-18 22:23:00,
2013-03-18 18:33:00,32.0,30.0,30.03,NE,50,3.0,13.0,94,0.00,,,0.00,,2013-03-18 22:33:00,
2013-03-18 18:42:00,32.0,30.0,30.03,NE,50,3.0,13.0,94,0.00,,,0.00,,2013-03-18 22:42:00,
2013-03-18 18:53:00,32.0,30.0,30.03,NE,50,3.0,13.0,94,0.00,,,0.00,,2013-03-18 22:53:00,
2013-03-18 19:23:00,31.0,29.0,30.02,NE,55,4.0,12.0,94,0.00,,,0.00,,2013-03-18 23:23:00,
2013-03-18 19:33:00,31.0,29.0,30.02,NE,55,4.0,12.0,94,0.00,,,0.00,,2013-03-18 23:33:00,
2013-03-18 19:43:00,31.0,29.0,30.02,NE,55,4.0,12.0,94,0.00,,,0.00,,2013-03-18 23:43:00,
2013-03-18 19:53:00,31.0,29.0,30.02,NE,55,4.0,12.0,94,0.00,,,0.00,,2013-03-18 23:53:00,
2013-03-18 20:02:00,31.0,29.0,30.02,NE,55,4.0,12.0,94,0.00,,,0.00,,2013-03-19 00:02:00,
2013-03-18 20:23:00,32.0,31.0,29.98,NE,49,3.0,11.0,95,0.00,,,0.00,,2013-03-19 00:23:00,
2013-03-18 20:33:00,32.0,31.0,29.98,NE,49,3.0,11.0,95,0.00,,,0.00,,2013-03-19 00:33:00,
2013-03-18 20:43:00,32.0,31.0,29.98,NE,49,3.0,11.0,95,0.00,,,0.00,,2013-03-19 00:43:00,
2013-03-18 20:52:00,32.0,31.0,29.98,NE,49,3.0,11.0,95,0.00,,,0.00,,2013-03-19 00:52:00,
2013-03-18 21:02:00,32.0,31.0,29.98,NE,49,3.0,11.0,95,0.00,,,0.00,,2013-03-19 01:02:00,
2013-03-18 21:03:00,32.0,31.0,29.97,NE,49,4.0,9.0,95,0.00,,,0.00,,2013-03-19 01:03:00,
2013-03-18 21:23:00,32.0,31.0,29.97,NE,49,4.0,9.0,95,0.00,,,0.00,,2013-03-19 01:23:00,
2013-03-18 21:33:00,32.0,31.0,29.97,NE,49,4.0,9.0,95,0.00,,,0.00,,2013-03-19 01:33:00,
2013-03-18 21:43:00,32.0,31.0,29.97,NE,49,4.0,9.0,95,0.00,,,0.00,,2013-03-19 01:43:00,
2013-03-18 21:52:00,32.0,31.0,29.97,NE,49,4.0,9.0,95,0.00,,,0.00,,2013-03-19 01:52:00,
2013-03-18 22:23:00,32.0,31.0,29.95,ESE,114,3.0,10.0,95,0.02,,,0.02,,2013-03-19 02:23:00,
2013-03-18 22:33:00,32.0,31.0,29.95,ESE,114,3.0,10.0,95,0.02,,,0.02,,2013-03-19 02:33:00,
2013-03-18 22:43:00,32.0,31.0,29.95,ESE,114,3.0,10.0,95,0.02,,,0.02,,2013-03-19 02:43:00,
2013-03-18 22:53:00,32.0,31.0,29.95,ESE,114,3.0,10.0,95,0.02,,,0.02,,2013-03-19 02:53:00,
2013-03-18 23:02:00,32.0,31.0,29.95,ESE,114,3.0,10.0,95,0.02,,,0.02,,2013-03-19 03:02:00,
2013-03-18 23:03:00,32.0,31.0,29.91,ENE,64,5.0,10.0,95,0.00,,,0.02,,2013-03-19 03:03:00,
2013-03-18 23:23:00,32.0,31.0,29.91,ENE,64,5.0,10.0,95,0.00,,,0.02,,2013-03-19 03:23:00,
2013-03-18 23:33:00,32.0,31.0,29.91,ENE,64,5.0,10.0,95,0.00,,,0.02,,2013-03-19 03:33:00,
2013-03-18 23:43:00,32.0,31.0,29.91,ENE,64,5.0,10.0,95,0.00,,,0.02,,2013-03-19 03:43:00,
2013-03-18 23:54:00,32.0,31.0,29.91,ENE,64,5.0,10.0,95,0.00,,,0.02,,2013-03-19 03:54:00,